TimeCST,TemperatureF,Dew PointF,Humidity,Sea Level PressureIn,VisibilityMPH,Wind Direction,Wind SpeedMPH,Gust SpeedMPH,PrecipitationIn,Events,Conditions,WindDirDegrees,DateUTC
12:15 AM,71.6,69.8,94,30.04,7.0,South,11.5,17.3,N/A,,Overcast,180,2013-01-12 06:15:00
12:35 AM,71.6,69.8,94,30.04,7.0,South,11.5,17.3,N/A,,Overcast,180,2013-01-12 06:35:00
12:55 AM,71.6,69.8,94,30.04,7.0,South,9.2,-,N/A,,Overcast,170,2013-01-12 06:55:00
1:15 AM,69.8,69.8,100,30.04,5.0,South,9.2,-,N/A,,Overcast,180,2013-01-12 07:15:00
1:35 AM,69.8,69.8,100,30.05,5.0,South,8.1,-,N/A,,Overcast,180,2013-01-12 07:35:00
1:55 AM,69.8,69.8,100,30.04,5.0,South,5.8,-,N/A,,Overcast,170,2013-01-12 07:55:00
2:15 AM,69.8,69.8,100,30.04,5.0,South,8.1,-,N/A,,Overcast,170,2013-01-12 08:15:00
2:35 AM,69.8,69.8,100,30.04,5.0,South,6.9,-,N/A,,Overcast,170,2013-01-12 08:35:00
2:55 AM,69.8,69.8,100,30.04,5.0,South,8.1,-,N/A,,Overcast,170,2013-01-12 08:55:00
3:15 AM,69.8,68.0,94,30.03,5.0,South,9.2,18.4,N/A,,Overcast,180,2013-01-12 09:15:00
3:35 AM,69.8,69.8,100,30.02,5.0,South,9.2,-,N/A,,Overcast,180,2013-01-12 09:35:00
3:55 AM,69.8,69.8,100,30.02,4.0,South,8.1,-,N/A,,Overcast,170,2013-01-12 09:55:00
4:15 AM,69.8,69.8,100,30.02,5.0,South,8.1,-,N/A,,Overcast,180,2013-01-12 10:15:00
4:35 AM,69.8,69.8,100,30.01,5.0,South,6.9,-,N/A,,Overcast,170,2013-01-12 10:35:00
4:55 AM,69.8,69.8,100,30.01,4.0,South,6.9,-,N/A,,Overcast,170,2013-01-12 10:55:00
5:15 AM,69.8,69.8,100,30.01,3.0,South,9.2,-,N/A,,Overcast,180,2013-01-12 11:15:00
5:35 AM,69.8,69.8,100,30.02,3.0,South,9.2,-,N/A,,Overcast,180,2013-01-12 11:35:00
5:55 AM,69.8,69.8,100,30.03,2.0,Calm,Calm,-,N/A,,Overcast,0,2013-01-12 11:55:00
6:15 AM,69.8,69.8,100,30.04,1.0,Calm,Calm,-,N/A,,Overcast,0,2013-01-12 12:15:00
6:35 AM,69.8,69.8,100,30.05,1.8,SSE,3.5,-,N/A,,Overcast,150,2013-01-12 12:35:00
6:55 AM,69.8,68.0,94,30.04,0.8,SE,5.8,-,N/A,,Overcast,130,2013-01-12 12:55:00
7:15 AM,69.8,68.0,94,30.04,0.2,ESE,3.5,-,N/A,,Overcast,110,2013-01-12 13:15:00
7:35 AM,68.0,68.0,100,30.06,0.5,South,4.6,-,N/A,,Overcast,180,2013-01-12 13:35:00
7:55 AM,69.8,68.0,94,30.07,0.8,South,4.6,-,N/A,,Overcast,190,2013-01-12 13:55:00
8:15 AM,69.8,68.0,94,30.06,0.5,SSE,3.5,-,N/A,,Overcast,160,2013-01-12 14:15:00
8:35 AM,69.8,68.0,94,30.07,0.8,South,3.5,-,N/A,,Overcast,170,2013-01-12 14:35:00
8:55 AM,69.8,68.0,94,30.07,0.8,South,4.6,-,N/A,,Overcast,170,2013-01-12 14:55:00
9:15 AM,69.8,68.0,94,30.08,1.0,South,4.6,-,N/A,,Overcast,170,2013-01-12 15:15:00
9:35 AM,69.8,69.8,100,30.07,1.2,South,5.8,-,N/A,,Overcast,180,2013-01-12 15:35:00
9:55 AM,69.8,69.8,100,30.07,1.2,South,8.1,-,N/A,,Overcast,170,2013-01-12 15:55:00
10:15 AM,71.6,69.8,94,30.06,4.0,SSE,5.8,-,N/A,,Overcast,160,2013-01-12 16:15:00
10:35 AM,73.4,69.8,88,30.06,9.0,South,9.2,-,N/A,,Overcast,170,2013-01-12 16:35:00
10:55 AM,75.2,69.8,83,30.05,10.0,SSE,6.9,-,N/A,,Mostly Cloudy,160,2013-01-12 16:55:00
11:15 AM,75.2,69.8,83,30.03,10.0,SSE,10.4,-,N/A,,Scattered Clouds,160,2013-01-12 17:15:00
11:35 AM,77.0,69.8,78,30.02,10.0,South,6.9,-,N/A,,Scattered Clouds,170,2013-01-12 17:35:00
11:55 AM,77.0,69.8,78,30.01,10.0,South,13.8,20.7,N/A,,Mostly Cloudy,170,2013-01-12 17:55:00
12:15 PM,77.0,68.0,74,30.00,10.0,South,15.0,23.0,N/A,,Scattered Clouds,180,2013-01-12 18:15:00
12:55 PM,80.6,66.2,61,29.99,10.0,South,15.0,20.7,N/A,,Scattered Clouds,180,2013-01-12 18:55:00
1:35 PM,78.8,66.2,65,29.98,10.0,SSE,15.0,21.9,N/A,,Mostly Cloudy,160,2013-01-12 19:35:00
1:55 PM,78.8,66.2,65,29.98,10.0,South,10.4,23.0,N/A,,Scattered Clouds,190,2013-01-12 19:55:00
2:15 PM,78.8,66.2,65,29.98,10.0,South,13.8,23.0,N/A,,Mostly Cloudy,170,2013-01-12 20:15:00
2:35 PM,78.8,66.2,65,29.97,10.0,SSE,15.0,23.0,N/A,,Scattered Clouds,160,2013-01-12 20:35:00
2:55 PM,78.8,64.4,61,29.97,10.0,South,12.7,21.9,N/A,,Partly Cloudy,180,2013-01-12 20:55:00
3:15 PM,78.8,64.4,61,29.97,10.0,South,12.7,20.7,N/A,,Partly Cloudy,170,2013-01-12 21:15:00
3:35 PM,77.0,64.4,65,29.97,10.0,South,11.5,20.7,N/A,,Partly Cloudy,170,2013-01-12 21:35:00
3:55 PM,77.0,66.2,69,29.96,10.0,South,15.0,23.0,N/A,,Partly Cloudy,170,2013-01-12 21:55:00
4:15 PM,75.2,66.2,73,29.97,10.0,South,11.5,18.4,N/A,,Partly Cloudy,180,2013-01-12 22:15:00
4:35 PM,75.2,66.2,73,29.97,10.0,South,11.5,18.4,N/A,,Mostly Cloudy,170,2013-01-12 22:35:00
4:55 PM,75.2,66.2,73,29.97,10.0,South,11.5,16.1,N/A,,Scattered Clouds,170,2013-01-12 22:55:00
5:15 PM,73.4,66.2,78,29.96,10.0,South,10.4,18.4,N/A,,Partly Cloudy,180,2013-01-12 23:15:00
5:35 PM,73.4,66.2,78,29.97,10.0,South,9.2,-,N/A,,Clear,170,2013-01-12 23:35:00
5:55 PM,73.4,66.2,78,29.96,10.0,South,5.8,-,N/A,,Clear,170,2013-01-12 23:55:00
6:15 PM,73.4,66.2,78,29.97,10.0,SSE,6.9,-,N/A,,Scattered Clouds,160,2013-01-13 00:15:00
6:35 PM,73.4,66.2,78,29.96,10.0,SSE,5.8,-,N/A,,Mostly Cloudy,160,2013-01-13 00:35:00
6:55 PM,71.6,66.2,83,29.96,10.0,South,6.9,-,N/A,,Mostly Cloudy,180,2013-01-13 00:55:00
7:15 PM,71.6,66.2,83,29.95,10.0,SSE,5.8,-,N/A,,Scattered Clouds,160,2013-01-13 01:15:00
7:35 PM,71.6,66.2,83,29.94,10.0,South,5.8,-,N/A,,Partly Cloudy,180,2013-01-13 01:35:00
7:55 PM,71.6,66.2,83,29.94,10.0,ESE,4.6,-,N/A,,Clear,120,2013-01-13 01:55:00
8:15 PM,71.6,66.2,83,29.94,10.0,South,3.5,-,N/A,,Clear,170,2013-01-13 02:15:00
8:35 PM,69.8,66.2,88,29.95,10.0,South,4.6,-,N/A,,Clear,170,2013-01-13 02:35:00
8:55 PM,69.8,66.2,88,29.95,10.0,Calm,Calm,-,N/A,,Clear,0,2013-01-13 02:55:00
9:15 PM,69.8,66.2,88,29.95,10.0,ESE,3.5,-,N/A,,Scattered Clouds,110,2013-01-13 03:15:00
9:35 PM,69.8,66.2,88,29.95,10.0,ESE,3.5,-,N/A,,Mostly Cloudy,120,2013-01-13 03:35:00
9:55 PM,69.8,66.2,88,29.95,9.0,ESE,5.8,-,N/A,,Scattered Clouds,110,2013-01-13 03:55:00
10:15 PM,69.8,66.2,88,29.94,9.0,Calm,Calm,-,N/A,,Partly Cloudy,0,2013-01-13 04:15:00
10:35 PM,69.8,68.0,94,29.95,8.0,South,5.8,-,N/A,,Mostly Cloudy,170,2013-01-13 04:35:00
10:55 PM,69.8,68.0,94,29.95,8.0,South,8.1,-,N/A,,Overcast,190,2013-01-13 04:55:00
11:15 PM,69.8,69.8,100,29.94,8.0,South,6.9,-,N/A,,Overcast,180,2013-01-13 05:15:00
11:35 PM,71.6,69.8,94,29.94,8.0,South,8.1,-,N/A,,Mostly Cloudy,170,2013-01-13 05:35:00
11:55 PM,71.6,69.8,94,29.94,10.0,South,8.1,-,N/A,,Overcast,180,2013-01-13 05:55:00